Regional Weather Roundup
Issued by NWS Little Rock, AR

Home | Current Version | Previous Version | Text Only | Print | Product List | Glossary Off
Versions: 1 2 3 4 5 6 7 8 9 10 11 12 13 14 15 16 17 18 19 20 21 22 23 24 25 26 27

000
ASUS44 KLZK 291205
RWRLZK

WEATHER ROUNDUP FOR ARKANSAS
NATIONAL WEATHER SERVICE LITTLE ROCK AR
700 AM CDT SUN MAY 29 2016

NOTE: "FAIR" INDICATES FEW OR NO CLOUDS BELOW 12,000 FEET WITH NO
SIGNIFICANT WEATHER AND/OR OBSTRUCTIONS TO VISIBILITY.

ARZ001-003-010-029-291300-
NORTHWEST ARKANSAS

CITY           SKY/WX    TMP DP  RH WIND       PRES   REMARKS
FAYETTEVILLE   CLOUDY    60  60 100 S3        30.14R FOG
6HR MIN TEMP:  59; 6HR MAX TEMP:  64;

FORT SMITH     CLOUDY    68  66  93 NE3       30.10R
6HR MIN TEMP:  67; 6HR MAX TEMP:  73;

HARRISON       CLOUDY    65  64  97 CALM      30.14R
6HR MIN TEMP:  62; 6HR MAX TEMP:  67;

BENTONVILLE    PTCLDY    64  61  88 CALM      30.14R
6HR MIN TEMP:  61; 6HR MAX TEMP:  66;

ROGERS           N/A     65  64  97 SE3       30.15R
6HR MIN TEMP:  62; 6HR MAX TEMP:  66;

SILOAM SPGS    PTCLDY    63  55  77 CALM      30.13R
6HR MIN TEMP:  61; 6HR MAX TEMP:  64;

HIGHFILL       MOCLDY    63  62  97 CALM      30.13R
6HR MIN TEMP:  61; 6HR MAX TEMP:  65;

SPRINGDALE     CLEAR     64  64 100 CALM      30.15R
$$

ARZ004-005-016-291300-
NORTH CENTRAL ARKANSAS

CITY           SKY/WX    TMP DP  RH WIND       PRES   REMARKS
BATESVILLE     MOSUNNY   66  64  94 CALM      30.11R
6HR MIN TEMP:  64; 6HR MAX TEMP:  70;

FLIPPIN        CLOUDY   N/A N/A N/A CALM      30.09R
MTN HOME       CLOUDY    67  66  97 SW3       30.10R
6HR MIN TEMP:  64; 6HR MAX TEMP:  69;

$$

ARZ040-041-291300-
WEST CENTRAL ARKANSAS

CITY           SKY/WX    TMP DP  RH WIND       PRES   REMARKS
MENA           CLOUDY    68  68 100 CALM      30.13R
MOUNT IDA      CLOUDY    64  62  93 CALM      30.09R FOG
6HR MIN TEMP:  62; 6HR MAX TEMP:  64;

$$

ARZ009-017-025-026-028-291300-
NORTHEAST ARKANSAS

CITY           SKY/WX    TMP DP  RH WIND       PRES   REMARKS
CORNING          N/A     68  68 100 CALM      30.10R FOG
JONESBORO      MOSUNNY   68  66  93 CALM      30.10R FOG
6HR MIN TEMP:  66; 6HR MAX TEMP:  72;

NEWPORT        SUNNY     69  69 100 CALM      30.12R
6HR MIN TEMP:  67; 6HR MAX TEMP:  71;

WALNUT RIDGE   SUNNY     68  64  88 CALM      30.09S
6HR MIN TEMP:  66; 6HR MAX TEMP:  70;

BLYTHEVILLE    MOSUNNY   70  68  93 S5        30.11R
6HR MIN TEMP:  69; 6HR MAX TEMP:  72;

$$

ARZ022-023-033-042-044-291300-
CENTRAL ARKANSAS

CITY           SKY/WX    TMP DP  RH WIND       PRES   REMARKS
LITTLE ROCK    CLOUDY    69  66  90 CALM      30.11R
6HR MIN TEMP:  67; 6HR MAX TEMP:  72;

N LITTLE ROCK    N/A     69  67  93 CALM      30.09R
6HR MIN TEMP:  67; 6HR MAX TEMP:  70;

SEARCY         MOSUNNY   66  66 100 CALM      30.12R FOG
6HR MIN TEMP:  64; 6HR MAX TEMP:  67;

HOT SPRINGS    CLOUDY    67  64  90 CALM      30.11R
6HR MIN TEMP:  65; 6HR MAX TEMP:  68;

RUSSELLVILLE   CLOUDY    67  65  93 NE5       30.11R
6HR MIN TEMP:  64; 6HR MAX TEMP:  68;

CLINTON        FOG       63  63 100 CALM      30.13R VSB 1/4
$$

ARZ036-291300-
EAST ARKANSAS

CITY           SKY/WX    TMP DP  RH WIND       PRES   REMARKS
WEST MEMPHIS   SUNNY     70  69  97 S6        30.10S FOG
6HR MIN TEMP:  67; 6HR MAX TEMP:  71;

$$

ARZ050-053-066-070-073-291300-
SOUTHWEST ARKANSAS

CITY           SKY/WX    TMP DP  RH WIND       PRES   REMARKS
ARKADELPHIA    FAIR      66  66 100 NE3       30.10R FOG
6HR MIN TEMP:  64; 6HR MAX TEMP:  66;

CAMDEN         MOSUNNY   64  63  94 CALM      30.09R FOG
TEXARKANA      PTCLDY    70  69  97 SW5       30.08R
6HR MIN TEMP:  67; 6HR MAX TEMP:  71;

EL DORADO      CLOUDY    67  66  97 CALM      30.09R
6HR MIN TEMP:  64; 6HR MAX TEMP:  67;

DE QUEEN       PTCLDY    66  66 100 CALM      30.07R FOG
6HR MIN TEMP:  65; 6HR MAX TEMP:  68;

$$

ARZ056-057-069-291300-
SOUTHEAST ARKANSAS

CITY           SKY/WX    TMP DP  RH WIND       PRES   REMARKS
PINE BLUFF     CLOUDY    69  67  93 CALM      30.11R
6HR MIN TEMP:  65; 6HR MAX TEMP:  70;

STUTTGART      MOSUNNY   72  66  83 CALM      30.11S
6HR MIN TEMP:  70; 6HR MAX TEMP:  72;

MONTICELLO     MOSUNNY   68  66  93 CALM      30.11R
6HR MIN TEMP:  66; 6HR MAX TEMP:  72;


$$






USA.gov is the U.S. government's official web portal to all federal, state and local government web resources and services.